Wind_Speed
10 10 10 10 9 9 10 10 10 10 9 9 9 10 9 10 10 10 11 11 13 14 15 16 16 17 17 19 21 21 22 21 16 10 7 6 5 6 5 4 9 14 11 10 11 9 7 6 5 5 5 4 2 1 1 3 4 4 1 6 7 8 8 7 9 7 7 9 7 6 4 5 6 5 4 4 5 6 6 6 5 7 7 9 11 14 15 14
10 10 10 10 9 9 10 10 10 10 10 9 10 10 10 10 10 10 11 11 12 13 14 15 15 16 17 18 20 21 23 19 14 10 7 8 7 7 8 6 7 13 12 10 9 5 3 2 2 5 4 2 1 1 1 2 3 3 3 8 7 8 8 6 8 6 6 9 8 7 5 5 6 5 3 3 5 5 5 6 5 8 8 10 12 13 14 14
11 10 10 10 9 9 9 10 10 10 10 10 10 10 10 11 10 9 11 11 12 13 14 14 15 15 16 18 19 20 20 14 10 4 1 5 8 6 8 9 6 11 11 6 6 4 5 4 2 4 4 2 1 1 2 2 1 2 2 7 7 6 8 6 6 5 6 8 8 7 5 6 5 3 3 4 5 5 5 4 4 8 9 10 11 11 12 12
11 11 10 10 10 10 9 10 11 10 10 10 10 10 10 11 10 9 10 11 12 12 13 14 14 15 16 17 18 18 14 9 4 4 5 2 7 7 7 7 6 9 8 4 4 3 3 2 3 4 4 1 3 2 2 2 1 2 3 7 7 5 8 8 6 5 4 6 7 7 6 7 4 2 3 3 4 6 6 4 5 8 10 11 11 11 11 11
11 11 10 10 10 10 10 10 10 10 10 10 10 10 10 10 9 8 10 11 11 12 13 13 14 15 16 17 17 14 8 5 3 6 5 2 6 10 8 6 6 8 7 4 3 3 3 2 4 4 4 1 2 3 2 2 3 1 5 7 6 5 8 8 7 6 4 4 6 6 6 6 4 3 4 3 5 6 5 6 7 8 10 11 11 10 10 10
12 11 11 10 10 9 9 10 10 10 9 10 10 10 10 9 8 8 9 10 10 11 12 12 13 15 15 16 14 8 6 2 4 4 4 3 4 10 10 8 7 8 7 5 4 4 3 4 4 3 4 2 2 2 3 3 4 1 6 6 4 5 7 8 7 6 3 4 6 5 6 5 5 7 5 6 8 6 6 8 9 9 10 11 10 9 9 9
12 11 11 10 10 9 9 10 10 10 9 9 10 9 9 9 8 7 8 9 10 10 11 12 12 14 15 14 9 5 6 1 5 3 4 4 3 7 10 9 8 8 7 7 6 5 5 6 5 6 5 1 4 5 3 4 2 2 5 7 6 7 7 8 8 5 3 5 5 3 5 4 6 9 5 6 8 7 7 9 9 10 10 10 9 8 7 7
12 11 11 10 10 9 9 10 10 10 9 9 9 9 9 8 7 7 8 8 9 10 10 11 11 14 16 12 6 5 5 4 6 2 5 5 4 6 9 10 9 8 8 9 6 6 6 6 7 7 6 4 5 4 2 5 3 2 5 7 6 7 8 8 8 7 6 5 3 3 4 6 7 8 7 6 7 7 7 8 10 10 10 9 8 7 6 6
12 11 11 11 10 9 9 9 10 10 9 10 9 9 8 8 6 6 7 7 8 9 10 10 10 12 13 10 7 5 3 6 5 5 6 6 4 6 9 9 10 10 8 8 7 7 5 7 9 8 7 5 5 4 1 3 2 4 3 5 6 8 8 7 8 8 7 4 2 3 5 5 3 5 7 7 6 7 7 8 9 9 9 7 6 6 5 5
12 11 11 11 10 10 9 9 10 10 10 10 9 8 7 7 6 5 6 7 8 9 9 8 9 11 10 7 8 4 6 6 4 7 6 5 4 7 9 7 10 11 8 6 6 7 5 7 9 7 6 4 5 2 1 2 4 3 1 6 7 8 8 6 7 8 7 4 1 2 6 4 1 2 5 6 6 6 7 8 8 7 8 7 5 5 4 3
12 11 11 11 11 10 9 9 10 10 10 10 9 7 6 6 5 5 6 7 7 8 8 7 9 9 8 7 7 1 7 5 3 6 5 4 4 7 7 7 9 11 8 5 6 6 7 9 9 7 3 4 6 1 2 3 3 1 5 8 8 8 8 5 6 8 6 3 0 1 5 4 2 3 5 7 6 6 7 8 7 6 6 5 5 5 3 2
12 11 11 11 11 10 10 11 11 10 9 10 8 6 5 5 4 5 6 7 7 7 7 6 8 8 7 7 7 1 4 3 2 5 5 1 3 5 5 6 9 10 8 6 5 5 8 9 8 7 5 8 7 0 2 2 1 5 8 8 8 7 6 5 6 6 4 3 2 2 4 5 4 5 6 6 6 5 6 7 7 5 5 4 4 3 2 2
12 11 12 11 11 11 11 11 10 9 9 8 5 4 5 4 4 5 6 6 6 7 6 6 7 7 6 5 3 2 2 3 5 6 5 3 5 5 5 6 8 9 8 9 7 6 8 7 8 8 6 8 6 3 1 0 3 7 7 4 7 7 5 6 5 6 5 3 4 4 2 6 5 5 5 5 5 5 5 6 6 5 4 3 3 3 2 2
12 11 13 12 11 10 10 9 9 9 8 6 3 4 4 3 4 5 5 6 5 5 5 5 6 3 5 4 1 5 5 5 6 5 4 4 5 5 5 6 8 9 8 9 8 7 7 6 8 8 5 5 4 2 3 3 4 5 5 3 4 3 4 7 6 8 6 4 7 7 1 5 4 5 5 4 3 4 4 5 5 4 3 2 2 2 2 2
11 12 13 12 10 9 9 8 8 8 7 3 2 3 3 4 4 4 5 5 4 3 4 5 4 2 6 5 3 5 5 5 5 3 4 6 7 5 6 6 7 8 9 9 7 5 5 6 7 7 3 2 4 4 3 3 4 4 3 3 3 0 4 7 6 8 4 4 8 8 2 6 4 5 6 4 3 3 3 4 4 4 3 2 1 1 0 1
12 12 13 12 10 9 8 8 8 8 5 2 3 3 4 4 3 4 4 3 2 2 3 2 1 3 6 1 3 4 4 4 2 4 3 5 7 5 6 6 5 8 8 6 5 3 4 5 5 5 5 4 4 3 3 3 4 3 2 1 2 1 3 6 6 6 4 5 6 6 1 5 5 5 6 5 5 3 3 4 4 3 2 2 0 1 4 5
13 13 12 11 10 8 7 7 7 6 3 2 3 3 4 3 3 3 2 1 1 2 2 3 2 5 5 0 3 6 4 2 2 2 1 3 5 4 5 6 5 7 7 5 6 6 4 5 4 3 4 4 3 4 5 2 2 2 1 0 2 1 1 4 6 7 6 5 4 3 1 5 6 6 6 6 5 4 2 4 4 3 3 2 2 4 5 2
13 13 12 10 9 8 7 6 6 3 1 3 4 4 4 2 2 1 1 2 2 1 3 3 3 4 4 4 4 4 2 2 3 3 2 4 5 4 5 5 4 5 7 6 7 7 5 4 4 4 4 3 2 4 4 4 4 3 2 2 1 2 2 1 4 8 8 5 3 3 3 5 5 6 6 6 6 4 2 3 4 2 2 4 3 5 3 2
12 12 10 10 9 7 6 6 4 1 4 6 7 7 6 4 3 2 3 3 3 3 1 3 5 3 0 4 2 3 3 5 5 4 4 5 6 5 5 4 4 6 7 6 7 6 3 4 6 6 3 1 3 5 6 6 6 6 4 5 3 1 1 3 4 6 5 5 6 5 3 5 5 5 6 6 6 5 3 3 3 2 2 5 5 3 1 2
12 11 10 9 8 7 5 4 3 3 7 10 10 6 4 4 3 4 5 6 9 8 4 1 6 6 3 2 3 6 5 4 4 5 6 5 6 8 6 5 6 7 8 7 5 3 2 6 7 3 3 4 6 6 6 6 5 5 4 4 4 3 1 5 5 5 2 4 6 5 3 5 4 5 5 5 5 5 4 4 3 1 2 5 4 3 2 1
11 10 10 8 7 6 4 3 3 6 10 13 10 4 2 1 2 1 2 7 12 13 11 6 5 9 8 6 6 7 3 4 6 5 6 6 6 7 7 7 8 8 8 7 5 1 3 8 4 3 5 6 7 7 5 5 3 4 4 2 3 2 3 5 4 5 5 5 4 6 5 4 4 3 4 5 6 6 4 4 3 1 2 4 4 5 4 3
10 10 9 7 6 5 4 3 3 7 10 11 8 5 3 4 3 4 3 5 8 11 13 9 7 10 10 11 8 4 4 6 9 8 7 7 7 7 7 8 11 10 7 6 7 6 7 9 0 6 5 6 6 5 4 5 4 4 3 2 2 2 3 5 4 5 5 4 3 7 5 4 4 3 3 4 5 3 2 1 2 2 3 4 5 6 6 6
10 8 8 7 5 4 3 3 4 7 10 9 6 5 0 3 4 5 4 5 3 7 9 10 9 9 10 9 5 6 6 7 10 11 10 9 8 8 7 9 12 11 8 9 9 8 8 4 4 5 4 6 5 3 4 5 5 4 4 3 1 2 1 1 4 6 5 1 2 6 3 2 3 3 4 3 2 3 3 2 3 4 5 6 7 7 6 7
9 7 7 5 4 4 2 5 4 5 9 8 6 4 3 4 2 5 5 5 2 4 6 6 7 8 8 4 5 9 7 4 7 8 12 11 7 5 8 9 11 11 10 11 10 10 9 2 7 5 3 5 7 4 4 6 5 3 2 5 3 2 3 3 5 7 6 2 3 6 2 2 5 5 5 4 3 3 4 5 6 7 7 7 8 8 7 7
8 7 6 5 5 4 5 5 3 4 8 7 6 4 5 4 2 5 4 4 3 4 3 5 4 6 5 3 5 7 4 5 6 5 11 11 7 6 6 5 7 11 12 12 9 10 9 3 3 6 5 5 8 4 2 5 5 2 3 4 6 4 3 2 6 7 5 4 7 8 4 3 6 6 5 6 5 5 5 6 8 8 7 7 8 8 7 7
9 7 6 7 6 8 7 3 4 6 7 5 5 6 5 3 3 3 3 4 5 5 6 6 5 7 8 6 7 5 5 7 4 4 8 7 5 5 5 5 5 8 9 9 7 7 4 2 1 6 6 6 8 4 2 4 7 1 4 5 5 4 3 2 6 6 3 0 6 9 6 0 5 6 7 6 6 7 6 7 9 7 6 7 7 7 7 7
9 7 8 8 9 13 6 1 7 8 5 4 7 9 5 4 3 3 3 4 5 6 6 4 3 6 7 6 9 6 3 7 7 5 7 5 4 4 6 7 6 5 3 5 6 5 5 5 5 6 7 7 7 2 4 3 7 1 5 4 3 4 5 4 6 7 3 2 5 7 5 3 3 6 8 7 7 8 8 8 9 7 7 7 7 9 9 8
8 8 9 9 12 16 6 2 7 5 2 6 9 10 6 4 5 4 4 5 4 3 4 3 2 4 4 4 9 6 1 7 8 7 7 5 4 5 8 8 8 7 6 7 7 4 5 9 8 6 7 6 3 4 6 4 5 3 5 3 3 4 5 5 6 5 2 2 4 6 5 5 2 7 8 8 8 9 9 10 9 8 8 7 8 10 10 9
7 9 10 11 15 16 9 6 7 4 5 8 8 8 5 5 6 4 5 4 4 2 2 4 3 6 6 6 9 7 1 5 4 5 9 7 4 4 5 5 5 6 7 8 8 4 4 4 3 4 7 4 3 6 4 5 3 4 2 1 2 3 4 4 6 4 2 5 4 4 5 6 1 6 7 7 7 8 9 10 9 8 8 7 8 9 9 9
8 10 11 14 14 12 8 7 8 7 7 5 4 6 7 7 5 5 6 4 3 4 2 3 4 8 11 9 9 8 6 4 2 6 9 7 7 6 2 0 3 5 6 8 9 3 3 2 0 4 6 3 3 4 2 3 1 5 4 4 4 4 3 3 3 3 4 4 2 1 4 5 3 4 6 5 5 8 10 9 9 9 8 8 7 8 8 8
9 10 14 17 13 10 7 4 8 10 4 3 5 8 8 5 4 6 6 2 1 4 5 6 6 9 14 12 9 9 8 4 5 9 9 6 8 9 5 3 4 5 6 7 9 8 6 5 4 4 3 2 2 2 2 2 4 5 5 4 4 3 3 3 3 3 5 3 1 2 4 5 5 1 5 6 6 8 9 10 12 11 10 8 6 7 8 7
9 11 15 19 15 14 9 3 9 10 4 4 8 7 6 5 5 6 4 2 3 5 6 8 9 10 14 13 8 10 10 6 7 9 10 9 8 8 8 7 6 7 6 7 9 9 9 8 5 4 3 4 7 5 4 5 5 5 5 5 5 3 2 4 3 3 5 1 3 2 2 5 4 2 5 8 8 7 6 9 12 12 10 9 7 7 7 6
9 11 16 18 17 17 10 6 10 6 3 8 8 6 5 6 7 4 3 4 2 3 4 7 9 10 13 12 8 9 8 6 8 8 9 10 9 9 8 4 4 6 5 7 10 9 8 6 6 7 5 5 8 7 5 4 6 7 6 5 5 5 4 6 4 3 4 1 4 1 2 4 3 3 5 7 8 6 6 8 11 12 11 10 8 8 7 7
9 11 14 15 17 17 12 10 10 2 2 8 7 6 7 6 5 3 3 4 3 2 3 6 10 10 11 11 8 10 7 5 8 8 8 10 8 8 8 5 7 7 4 6 7 7 9 6 6 6 3 5 8 8 6 4 5 7 4 5 6 5 5 6 5 6 5 1 4 3 2 3 1 4 5 5 6 6 7 9 10 11 10 9 8 8 8 8
9 10 9 10 13 15 13 12 9 1 1 7 7 6 8 6 5 5 4 4 4 4 5 6 10 11 10 8 8 9 6 3 8 8 8 10 8 8 9 9 10 8 5 5 4 4 8 3 6 3 2 2 6 4 4 7 5 4 3 6 5 4 4 5 4 5 7 4 2 2 3 3 2 6 7 6 6 8 9 11 12 11 10 9 8 8 7 7
8 7 6 7 9 11 11 12 10 4 4 6 7 7 6 2 1 3 2 2 1 3 5 8 10 11 10 7 8 10 5 2 9 9 6 9 9 9 10 8 10 11 7 3 3 4 7 2 8 5 3 1 2 2 3 7 4 2 4 4 2 3 4 5 3 1 4 6 2 1 5 1 4 5 7 8 9 10 11 12 12 11 11 10 7 7 7 7
6 4 3 4 6 8 10 12 12 7 5 6 7 5 3 1 3 2 3 3 1 1 5 8 8 8 10 8 8 12 8 5 8 8 6 8 7 8 9 7 8 12 10 6 2 2 4 3 7 4 4 5 1 2 3 3 4 4 4 1 4 0 4 4 4 3 4 6 3 2 6 3 2 1 5 9 10 11 12 12 12 12 11 9 8 7 7 8
4 4 2 3 3 7 8 8 10 8 5 6 7 5 3 0 3 3 3 3 2 3 6 7 5 6 9 9 9 12 10 7 8 7 6 7 6 8 11 8 8 11 10 8 3 0 3 2 6 4 3 6 3 4 4 3 1 4 2 2 2 4 4 2 4 6 5 6 4 3 5 5 1 0 4 10 12 13 13 12 12 13 11 9 8 8 8 9
4 5 3 3 2 6 6 8 8 7 5 6 7 5 3 2 1 2 3 3 3 3 6 6 4 5 7 8 9 12 10 8 8 7 6 6 5 7 9 6 7 10 9 8 4 1 2 2 4 6 4 4 6 6 4 4 4 1 1 3 2 5 5 3 4 5 6 7 6 4 4 2 2 4 2 6 12 14 14 13 12 12 11 9 8 8 7 8
5 4 4 3 3 3 8 8 7 6 6 6 5 3 2 3 3 3 2 3 4 3 5 4 5 7 7 7 9 10 8 6 7 6 5 6 6 5 7 5 5 7 6 7 6 2 2 3 2 6 6 5 4 2 3 3 1 3 4 4 3 2 3 4 4 4 6 7 6 6 5 1 4 4 6 1 9 13 13 13 11 11 11 10 8 8 7 8
5 4 3 3 4 9 9 6 6 6 6 6 5 5 3 4 5 5 4 5 6 5 5 5 4 6 7 8 8 8 7 6 7 6 4 7 7 4 5 5 5 7 6 7 7 5 4 3 2 4 6 4 2 5 4 4 4 4 5 5 4 4 4 5 6 4 4 6 6 7 6 1 4 3 4 2 6 12 13 13 12 11 11 10 8 8 8 8
5 2 3 5 9 8 5 6 5 4 6 5 4 5 4 3 6 8 6 6 6 6 5 5 5 5 8 8 6 7 7 6 6 6 4 5 6 2 4 4 5 7 7 7 6 4 1 3 4 3 1 2 6 6 2 2 3 3 3 4 5 5 5 6 7 5 4 5 4 6 6 1 4 4 3 1 5 10 11 12 12 10 10 9 9 9 8 7
5 1 4 7 7 2 6 7 5 4 6 6 5 6 6 5 8 8 6 6 6 5 6 6 6 6 6 6 6 9 9 5 4 4 2 3 3 3 4 5 6 8 9 7 6 5 1 3 5 2 1 3 5 5 3 1 2 4 1 2 4 5 4 6 6 5 6 6 4 6 5 2 5 4 2 3 7 10 10 11 12 10 8 8 9 9 8 7
2 2 4 6 3 3 6 6 5 6 7 7 6 8 8 8 9 10 9 8 6 6 7 7 7 5 4 5 7 9 8 5 4 3 1 2 3 4 1 7 8 9 8 3 3 7 4 4 4 3 3 4 4 4 5 4 4 4 1 2 2 3 3 5 4 4 5 6 7 8 6 3 5 3 3 5 8 9 9 9 9 8 8 8 9 8 7 6
2 1 3 5 4 5 6 4 4 4 5 6 8 9 9 8 7 9 9 7 5 6 7 6 5 4 5 6 7 7 6 3 3 4 2 2 4 4 2 7 8 9 5 3 1 6 4 2 3 4 5 5 4 3 2 2 3 2 1 1 2 3 3 4 4 5 5 5 6 8 5 3 6 4 5 6 7 8 8 7 7 7 7 8 8 7 6 5
3 3 3 5 5 6 6 4 5 5 3 4 6 6 7 6 4 4 7 5 5 7 5 3 5 6 7 8 7 8 8 4 1 5 5 4 5 3 3 6 5 4 5 3 2 6 3 1 1 2 4 3 2 2 1 4 4 1 1 1 2 3 3 5 6 5 5 5 5 4 4 2 5 5 5 6 6 6 6 5 5 6 6 7 7 6 6 4
2 2 2 4 4 5 6 6 7 6 3 2 3 2 4 5 5 6 5 3 5 7 3 3 6 8 9 11 9 7 8 6 4 5 5 4 6 6 4 6 5 4 5 4 3 4 3 3 2 1 2 3 3 4 3 1 1 2 2 2 3 3 3 5 5 4 5 7 5 4 3 0 4 6 7 8 8 8 8 8 8 7 6 6 5 5 5 4
2 2 0 0 2 5 6 5 8 8 6 4 3 3 4 6 7 6 4 3 6 6 4 4 7 8 9 11 9 7 8 7 6 6 5 5 7 9 7 6 7 6 6 6 4 3 3 3 2 2 4 5 5 5 4 4 5 5 4 4 5 5 4 4 5 5 5 6 4 4 3 3 7 10 10 9 8 7 7 6 5 4 5 6 4 0 3 3
2 3 1 1 3 3 2 1 5 8 7 6 4 5 4 5 7 5 3 5 6 4 3 5 8 7 8 8 6 7 6 5 7 7 5 6 6 6 7 6 7 8 7 6 5 2 3 2 3 4 6 6 5 5 5 5 6 6 6 5 5 6 6 6 6 6 4 4 4 5 6 7 8 8 7 5 5 6 7 5 4 5 3 3 6 3 3 3
2 3 1 2 5 4 2 2 5 6 5 5 4 4 4 6 9 7 4 3 7 8 6 9 11 9 9 8 7 7 4 2 7 8 4 5 4 3 3 3 4 6 6 5 5 2 2 2 4 5 4 5 5 4 4 4 5 6 6 5 4 4 4 5 5 5 4 3 3 4 6 6 6 7 6 5 6 6 5 3 2 3 2 2 3 5 6 5
5 5 3 4 4 3 3 4 5 5 5 5 4 4 5 10 13 12 10 9 9 10 9 12 14 11 10 11 10 9 8 7 7 7 3 2 2 2 2 2 1 4 6 4 3 3 3 2 4 5 5 3 6 5 4 4 4 5 6 6 5 4 4 5 5 6 5 4 1 1 1 4 6 5 4 5 5 3 3 2 1 3 3 3 4 6 6 7
5 4 3 5 3 2 3 4 5 5 4 4 2 3 7 10 10 11 10 9 9 9 6 6 10 10 9 12 10 8 7 7 7 6 4 3 4 4 3 3 3 1 2 3 2 2 3 3 5 5 6 3 8 6 4 4 6 4 4 5 4 4 3 3 5 6 6 5 4 2 3 6 7 3 1 4 4 3 4 3 2 3 4 4 5 6 7 7
Wind_Direction
337 332 327 322 318 313 309 304 300 299 295 297 299 298 304 308 313 323 327 330 330 329 331 335 336 337 336 331 328 327 326 324 319 302 264 275 281 241 227 191 192 190 172 150 157 161 174 183 174 193 216 217 238 278 226 259 261 264 309 67 61 62 62 45 55 67 85 97 117 141 136 98 106 106 119 136 114 119 97 77 78 71 77 95 108 121 132 141
335 332 328 321 316 313 310 304 299 296 293 294 295 295 300 303 310 321 325 328 331 330 330 333 335 336 335 330 329 328 328 324 303 279 260 262 253 239 227 208 196 191 174 163 181 203 251 252 177 209 233 216 169 215 219 225 243 288 27 71 61 62 67 53 61 60 75 98 119 127 113 94 95 102 137 123 103 123 92 83 106 101 106 114 119 129 139 148
334 332 327 322 317 311 310 304 296 292 290 291 292 293 295 299 310 321 323 327 330 329 328 331 334 335 333 329 328 329 330 316 280 253 353 252 226 229 225 215 201 187 181 193 218 247 301 320 230 230 255 231 129 205 217 176 196 304 14 75 72 77 83 76 71 62 76 104 118 116 113 100 94 103 123 108 106 117 98 108 132 124 133 134 134 140 148 155
333 329 327 323 317 312 308 301 293 290 287 287 290 290 292 297 308 320 320 323 327 326 327 329 333 335 332 329 327 330 324 285 251 79 37 300 203 199 207 212 199 181 187 221 225 237 276 281 221 236 264 246 120 187 201 151 208 325 22 72 82 92 90 88 90 91 90 100 108 116 113 99 103 93 93 114 111 100 103 125 125 138 150 144 143 148 155 159
329 327 326 322 319 314 307 302 295 290 286 286 287 288 291 295 308 319 316 320 324 323 326 329 333 334 331 327 326 329 306 239 118 60 15 349 189 191 190 192 183 175 190 208 196 212 233 240 234 243 264 296 117 188 135 128 250 347 61 71 81 82 90 96 95 100 105 109 115 116 99 99 118 85 53 47 59 63 85 110 115 140 153 145 148 153 159 160
327 326 323 320 318 313 309 306 298 291 287 286 286 286 291 297 309 315 311 317 319 320 325 329 335 334 331 327 325 319 277 229 76 36 24 54 175 191 190 185 179 178 194 209 215 233 246 254 256 290 297 310 32 32 96 133 257 355 75 76 80 75 92 106 100 108 133 125 109 95 97 110 105 80 48 44 58 56 75 98 116 134 144 144 150 158 161 160
326 322 321 319 316 313 310 306 298 293 289 286 284 284 289 298 307 309 309 312 314 320 323 330 338 335 334 331 324 274 252 29 61 29 56 74 138 178 188 186 189 190 202 225 239 260 280 283 300 330 316 336 28 22 84 141 225 324 65 83 91 87 97 108 110 118 111 92 88 97 119 99 70 74 60 53 66 69 85 101 116 126 136 146 155 159 162 161
324 320 319 316 313 312 308 306 300 293 289 286 283 283 288 296 302 304 303 306 312 318 321 332 342 338 339 336 315 245 225 71 61 59 84 84 105 163 181 183 196 198 216 237 259 287 294 308 338 340 333 27 21 15 108 162 168 7 54 89 103 101 105 113 119 120 101 94 106 123 106 74 65 81 72 61 78 85 96 110 120 130 139 150 156 154 164 167
322 319 317 313 312 310 305 306 301 293 290 286 282 283 287 292 297 296 295 302 309 313 322 335 343 342 341 329 294 243 145 84 68 66 88 96 108 157 171 183 195 198 223 241 258 279 294 333 358 350 333 349 344 7 123 216 95 37 37 107 117 113 117 128 129 127 116 114 141 115 98 86 93 100 78 67 85 100 112 117 123 136 140 145 153 153 171 173
321 318 315 311 309 307 304 303 299 293 288 284 281 281 286 288 289 287 287 296 304 309 322 335 345 346 338 311 276 229 116 100 69 47 70 102 127 159 172 193 192 198 226 235 241 264 288 324 343 335 310 303 315 2 128 308 30 13 245 124 121 119 123 142 133 130 126 113 173 112 102 99 53 41 76 89 102 115 126 123 129 138 132 139 147 146 169 176
321 317 313 309 305 305 303 298 293 288 286 284 281 281 283 280 277 275 278 289 300 306 320 339 348 347 328 294 272 198 113 124 55 23 31 89 146 175 187 204 193 202 227 235 239 260 281 313 327 312 304 330 317 230 127 353 347 244 162 130 129 127 120 144 143 139 140 114 209 121 111 114 75 73 95 113 125 125 127 126 135 134 121 134 140 133 155 175
320 317 311 305 300 298 293 287 285 286 286 281 280 280 271 263 262 264 271 284 294 303 324 344 350 352 320 271 256 254 115 162 327 348 346 34 190 205 217 214 202 213 234 251 257 271 283 302 308 301 325 326 318 272 78 0 287 169 167 143 136 145 128 140 154 154 162 135 180 187 119 102 81 94 104 117 129 129 127 126 135 134 124 136 134 132 155 171
320 316 305 299 296 292 289 286 287 290 286 281 286 269 249 246 250 255 264 279 294 307 330 349 356 353 298 256 219 232 209 236 301 312 308 271 230 236 236 221 213 224 243 265 286 303 289 290 289 295 308 307 335 15 312 181 157 158 178 175 152 174 158 148 164 167 167 132 173 211 108 86 84 101 114 124 133 132 125 122 132 131 130 138 138 155 159 173
318 311 303 302 301 299 297 296 298 294 286 287 281 240 231 230 238 249 260 276 297 311 337 356 2 348 266 267 224 251 258 267 282 276 251 224 222 225 219 219 222 230 246 261 284 309 294 279 271 271 274 299 343 314 228 174 167 157 165 196 192 199 138 148 168 171 169 143 189 223 67 88 120 131 131 142 149 137 117 117 126 121 133 147 144 174 155 167
313 307 303 303 304 306 304 301 297 291 292 287 230 215 215 221 232 247 256 276 299 322 356 2 9 326 264 257 236 260 269 253 247 215 196 200 208 204 189 203 218 227 241 253 270 300 285 261 264 278 288 258 256 254 224 149 150 162 171 180 193 228 119 142 166 180 174 139 202 242 41 95 134 139 140 163 187 163 106 103 111 112 139 149 148 179 63 69
310 304 304 303 302 303 301 297 288 287 295 252 203 197 200 213 224 240 253 281 294 342 359 346 17 282 278 258 175 221 225 218 177 127 157 198 216 207 172 188 209 217 230 242 242 238 241 245 262 298 295 248 243 270 249 183 143 156 229 104 124 199 139 140 159 174 162 140 188 252 11 103 126 142 152 167 187 185 115 100 100 93 93 64 359 83 45 17
309 306 305 303 301 300 299 294 285 288 283 200 179 177 183 200 210 229 249 254 325 23 314 298 316 268 269 337 191 202 190 172 95 113 152 196 216 216 186 197 201 205 217 206 195 200 212 239 254 270 262 255 279 280 254 229 99 134 206 129 119 232 211 142 147 150 169 172 171 234 206 97 110 139 164 175 182 186 127 101 102 98 98 84 353 49 57 1
309 306 304 301 299 298 295 282 279 290 202 158 153 153 143 146 151 139 154 130 73 5 275 265 271 259 227 210 203 158 123 337 311 277 245 195 197 211 210 210 200 203 216 201 190 204 217 236 261 269 244 229 273 288 302 7 358 327 313 296 149 170 227 151 124 140 168 181 154 215 190 122 129 139 160 180 183 182 139 98 93 94 105 95 53 44 49 266
305 303 302 299 297 294 291 272 263 224 137 134 124 120 111 114 117 139 182 174 191 232 264 177 207 267 34 167 140 49 332 304 290 246 193 175 179 194 201 205 212 216 225 217 195 204 254 266 245 250 238 196 0 338 337 353 334 320 319 300 295 214 165 82 91 123 159 174 167 217 200 134 147 139 155 176 181 187 160 125 99 99 75 70 64 47 333 275
303 303 298 294 294 289 288 270 234 148 143 136 126 126 138 166 187 180 182 207 229 254 307 196 219 272 308 108 33 345 307 253 236 205 173 167 179 191 191 196 214 221 232 238 214 174 283 273 250 263 6 9 343 332 323 324 314 299 293 280 272 259 99 88 98 116 176 208 164 192 190 129 132 131 152 167 176 197 179 153 139 139 82 78 103 142 185 174
302 298 294 289 287 280 273 256 198 153 156 149 147 186 255 244 236 169 166 217 224 241 262 262 267 278 280 294 321 337 322 206 199 177 164 173 184 192 185 196 219 222 221 236 256 259 258 258 248 35 10 340 321 319 305 289 267 268 284 273 233 229 85 84 95 126 193 235 150 169 194 142 124 125 144 169 182 190 174 153 143 135 97 103 126 125 116 107
295 292 289 280 273 268 259 248 189 156 160 158 176 242 332 44 45 24 333 253 210 218 243 250 264 274 273 273 276 294 280 216 197 178 166 176 190 202 187 193 224 227 203 212 244 247 243 251 278 55 358 313 300 297 278 256 242 252 265 247 198 128 103 104 107 136 187 239 150 171 193 126 112 118 138 176 184 153 89 67 91 90 92 96 96 93 92 88
291 286 278 268 261 256 242 205 161 155 161 168 213 259 5 106 52 9 296 276 209 187 221 230 238 251 254 253 224 211 233 219 206 185 168 187 200 214 211 204 225 228 211 213 227 235 232 230 53 37 334 305 291 258 244 240 227 238 269 271 85 92 246 121 124 154 173 278 150 164 177 90 119 139 138 161 157 104 86 82 83 82 89 90 85 80 76 78
287 276 265 255 239 233 175 145 143 162 170 186 239 257 200 184 1 336 285 277 248 171 198 212 230 246 244 239 178 198 217 216 221 176 162 195 198 197 225 221 223 224 221 224 227 242 253 9 34 342 297 293 287 247 226 248 228 182 263 302 360 35 318 15 110 151 156 180 170 156 171 198 185 175 147 141 150 135 129 132 113 100 104 100 92 85 73 71
280 264 250 231 220 186 137 138 159 182 177 194 230 213 200 209 277 309 287 263 219 157 173 186 206 231 215 175 179 205 226 202 218 162 158 198 198 176 213 221 224 224 217 220 226 240 259 354 15 285 275 277 278 259 210 278 273 151 104 351 346 338 329 75 143 167 177 198 186 191 232 188 167 176 149 144 161 152 146 144 123 113 121 114 100 94 87 80
269 253 229 219 195 146 132 145 163 171 178 188 201 184 190 231 246 258 272 256 212 151 155 176 178 184 178 176 174 190 226 189 165 130 156 193 212 204 212 180 209 242 217 204 227 242 253 4 337 268 279 276 266 250 111 292 274 219 63 12 339 301 279 207 193 216 260 4 173 211 260 8 157 176 153 151 159 144 144 139 122 122 128 114 102 98 96 92
261 241 216 209 170 148 141 105 153 164 179 171 183 187 201 251 224 210 241 236 207 157 150 164 172 173 170 169 171 189 213 139 127 149 170 188 189 203 221 189 190 235 202 189 227 232 215 224 227 243 265 265 254 233 76 309 277 14 42 351 315 284 267 246 233 248 291 67 161 205 252 278 206 165 146 155 158 145 146 136 124 130 124 111 108 103 98 93
252 226 208 198 168 161 153 113 161 184 181 146 173 196 221 247 200 195 240 217 172 145 150 140 129 169 162 159 188 215 52 135 163 160 158 193 193 196 218 208 201 192 176 207 218 172 188 217 216 231 255 251 262 33 46 314 287 50 49 341 309 288 279 270 255 261 297 259 219 190 212 255 210 137 144 165 166 156 151 142 135 132 124 118 113 106 103 99
237 214 201 184 171 174 170 165 193 206 149 151 183 208 212 203 193 214 255 223 155 133 148 139 144 174 169 165 194 218 200 183 201 130 149 188 208 228 237 218 209 174 166 224 227 147 141 206 228 254 262 263 35 39 20 306 319 87 111 233 230 238 251 255 255 269 268 261 264 168 194 258 219 137 158 181 182 169 155 147 141 135 129 125 116 112 112 107
220 207 194 173 168 185 189 191 202 171 149 181 199 182 177 182 204 214 212 208 157 136 127 154 168 173 173 175 187 202 204 185 127 142 166 175 183 210 264 291 226 191 173 222 242 215 129 112 315 251 262 311 27 54 19 324 81 134 182 205 184 189 205 226 250 285 253 246 303 179 215 262 256 155 165 177 172 164 157 150 146 143 137 128 124 122 116 108
211 201 183 168 165 181 185 195 194 175 184 246 156 155 181 190 229 218 185 176 168 150 157 174 170 169 180 187 182 184 201 180 152 176 176 166 184 192 187 180 206 210 192 205 226 227 209 201 203 213 235 275 248 198 123 142 167 184 222 225 208 190 188 209 188 224 262 256 135 223 229 251 262 195 147 139 129 149 160 156 154 153 144 135 130 121 112 107
203 191 175 172 172 176 180 162 172 186 229 185 155 176 203 189 217 224 164 146 189 168 171 176 173 177 185 194 187 175 191 186 172 191 189 184 191 187 194 198 182 194 206 201 203 207 211 209 187 164 175 219 237 224 167 170 192 221 234 230 254 264 242 256 227 226 276 332 122 186 227 243 256 73 119 134 133 148 154 152 157 154 144 139 133 122 116 110
190 180 176 181 179 180 192 168 159 186 216 170 177 212 220 202 203 208 170 171 158 135 162 170 174 181 184 193 187 170 182 179 172 193 196 196 197 188 201 224 202 216 226 200 194 190 193 189 185 193 174 190 230 235 213 191 190 214 236 241 269 299 293 286 286 272 286 87 116 148 228 236 218 108 112 127 128 138 147 149 151 146 140 137 135 129 122 112
176 176 180 190 191 189 188 171 162 150 147 182 204 210 211 217 187 174 200 170 104 103 158 162 170 177 187 195 180 170 187 178 171 185 186 195 209 194 193 205 216 243 255 198 196 197 201 187 181 207 158 152 216 247 288 296 203 207 253 275 279 303 310 311 318 313 318 48 135 157 233 271 239 123 113 109 115 134 153 145 135 134 134 131 131 130 124 115
162 171 183 203 211 203 192 184 181 154 181 203 215 200 204 214 174 181 197 146 128 160 156 164 180 181 187 195 178 180 213 196 177 193 190 194 209 198 192 192 200 228 240 199 184 204 226 195 112 116 77 167 224 243 284 281 234 192 233 262 283 317 316 316 314 320 323 299 177 165 249 300 87 127 124 122 129 135 144 140 134 136 136 135 135 132 127 117
144 161 189 213 221 215 208 208 208 229 262 221 210 205 207 221 146 175 153 76 134 161 152 172 190 191 185 185 181 187 218 207 178 192 195 197 207 199 194 183 185 210 231 220 160 189 231 164 108 119 129 140 280 226 226 266 255 169 225 247 9 7 301 293 280 261 289 284 305 286 265 224 128 146 136 135 138 137 146 148 144 143 142 144 141 134 131 119
143 164 178 197 215 219 219 222 218 226 254 229 216 220 208 37 27 51 52 34 31 179 183 177 184 201 190 180 184 184 190 189 182 195 195 192 203 197 192 186 184 207 232 254 217 191 245 165 126 147 133 102 9 214 181 283 288 269 261 171 102 96 267 278 286 272 268 282 296 270 276 267 167 191 153 153 150 148 156 153 147 149 149 147 140 133 129 121
179 201 160 137 205 231 227 212 203 209 233 228 228 245 249 325 52 42 19 2 333 262 224 191 179 214 201 184 178 175 179 182 179 191 191 180 183 184 190 195 190 204 231 249 233 94 281 187 131 144 139 121 156 210 173 139 261 301 319 133 182 276 272 245 279 289 290 296 298 273 281 279 254 73 180 180 167 157 157 153 153 155 152 145 139 136 130 122
218 217 162 109 274 248 211 178 185 210 227 222 221 224 232 250 302 332 333 324 309 256 233 208 178 216 217 188 168 169 183 187 173 184 198 186 173 176 193 200 184 195 223 241 228 157 273 244 151 153 162 157 180 218 228 160 141 168 190 188 247 301 305 291 291 296 296 300 301 297 290 296 46 30 313 193 170 162 158 157 161 157 149 145 142 141 134 127
234 214 139 55 328 197 166 169 196 221 220 223 235 220 221 278 270 270 281 291 299 269 245 227 183 194 201 180 163 168 191 202 183 188 195 178 168 172 193 203 182 182 205 230 233 199 206 255 180 155 172 206 196 205 309 308 238 228 240 252 261 272 283 289 287 283 292 297 299 296 293 5 56 12 343 327 164 165 161 159 158 151 146 144 143 144 137 127
241 207 114 64 116 142 153 189 212 219 220 230 250 246 261 295 275 271 268 261 276 272 262 268 230 194 178 177 170 167 186 201 191 197 186 179 194 196 178 191 193 175 177 208 219 209 211 244 235 181 194 210 99 57 15 335 322 302 298 301 298 286 277 281 278 268 278 288 297 298 296 24 55 2 334 318 163 161 161 156 149 144 143 141 142 142 133 125
238 193 95 117 132 142 195 223 207 220 235 236 260 264 269 294 274 273 275 257 255 248 234 250 254 209 178 180 172 169 186 188 184 197 186 182 208 188 129 157 196 189 187 199 198 186 221 259 240 229 222 73 71 69 58 19 7 320 315 326 306 289 285 285 290 299 285 277 290 289 284 33 44 4 334 249 150 151 156 148 141 141 138 139 140 134 126 121
224 106 96 141 144 197 245 221 199 222 237 241 271 272 256 260 265 265 269 258 245 222 206 212 222 210 187 179 175 183 191 184 185 203 182 177 178 97 120 175 197 202 203 197 174 158 164 248 234 227 92 100 99 110 136 135 282 263 275 1 306 298 306 298 302 315 296 286 293 278 274 64 53 16 27 119 131 140 148 143 140 140 137 139 135 126 123 120
213 81 114 160 181 262 237 217 210 212 220 231 246 252 246 248 258 259 255 247 224 202 202 200 204 209 186 178 187 188 188 189 197 206 236 199 144 70 123 195 194 199 202 202 164 169 187 222 220 222 202 184 174 179 182 191 238 264 330 43 333 320 300 284 289 291 285 305 318 294 290 50 67 53 94 128 134 134 136 133 135 138 140 137 128 121 120 119
206 144 125 163 200 237 236 258 280 232 211 224 239 252 250 240 245 251 247 236 217 216 210 189 193 195 166 176 188 182 191 226 205 188 218 185 130 80 119 176 195 204 195 354 322 176 187 224 207 234 243 235 246 246 240 244 235 230 143 81 348 321 287 285 287 275 282 313 311 291 296 70 96 103 121 132 132 127 124 123 126 129 131 123 114 112 110 109
222 198 147 161 193 226 240 262 278 266 238 230 241 251 246 232 198 197 218 214 196 210 215 171 180 183 169 179 182 173 189 224 220 174 180 164 134 94 123 165 198 192 118 54 239 182 174 184 178 284 293 292 324 44 24 297 271 195 127 66 10 337 289 281 284 292 310 301 284 306 340 82 118 116 120 114 95 80 69 61 72 84 94 95 94 98 101 99
262 239 171 168 189 215 229 230 235 246 254 249 258 267 243 222 157 151 200 219 174 184 198 158 183 192 181 179 178 169 179 187 171 159 154 140 126 108 127 163 164 134 128 150 200 194 190 181 158 13 25 49 59 80 83 331 332 66 65 44 30 14 308 286 300 336 330 293 294 10 6 201 105 81 75 69 56 51 43 31 27 20 18 34 58 90 101 99
255 287 83 158 214 205 211 216 217 224 231 237 260 289 252 205 165 151 173 185 174 192 204 164 175 192 183 177 175 163 165 166 155 150 144 140 136 132 139 142 138 162 187 173 166 226 235 186 162 154 109 84 84 92 87 85 86 78 67 55 41 36 26 358 1 11 336 304 330 23 38 79 73 66 60 46 42 66 81 82 76 55 21 351 330 42 110 105
249 272 199 218 252 231 196 182 212 222 226 226 239 262 249 183 150 129 123 151 155 173 198 147 144 160 166 173 173 154 161 174 158 152 154 151 150 149 143 128 134 167 185 157 146 248 278 156 162 165 127 99 95 96 98 109 106 95 80 67 58 56 51 43 39 28 3 357 31 62 81 78 60 60 68 49 39 65 73 72 84 90 82 296 291 327 37 46
312 305 266 232 249 252 251 225 219 221 211 200 206 228 214 142 123 109 76 90 115 113 115 115 114 123 134 141 139 119 85 80 144 148 153 155 160 162 137 117 134 160 167 155 150 192 251 190 173 177 148 112 111 114 124 132 118 105 91 70 65 67 55 47 36 15 358 15 66 102 101 90 68 64 78 80 64 66 67 52 49 60 44 322 346 29 35 40
310 302 292 277 254 217 224 221 212 207 185 179 185 175 138 110 105 101 76 50 70 93 98 101 105 109 110 104 95 83 58 46 91 106 73 80 97 63 75 70 98 161 159 151 155 193 216 179 162 204 233 161 144 154 146 148 161 139 100 63 53 52 47 52 38 11 355 355 355 179 97 89 90 82 90 98 94 117 142 130 87 60 45 28 44 55 59 61
311 268 232 262 254 182 188 195 196 192 162 159 179 140 118 109 109 109 94 62 55 66 58 75 102 105 95 85 69 47 35 36 55 67 45 43 63 57 57 65 44 24 145 146 165 185 187 178 174 220 258 177 154 169 171 195 223 192 93 49 45 51 50 64 50 32 14 342 320 335 53 93 110 127 168 128 127 143 127 102 73 72 70 63 63 64 64 61
Height
813 812 811 810 810 809 809 808 807 807 807 807 806 806 806 806 806 806 806 805 805 803 803 803 801 801 799 797 795 794 792 789 788 787 787 785 784 784 784 784 784 785 787 788 789 789 789 789 789 789 788 787 787 786 785 783 779 784 789 799 810 811 813 809 807 808 809 812 813 810 806 810 814 807 801 799 803 806 808 809 807 806 805 805 806 808 811 813
812 812 811 810 810 809 808 808 807 806 806 806 806 806 806 806 806 806 805 805 804 804 803 802 802 801 799 798 796 793 791 788 787 785 784 783 783 783 783 784 784 785 787 788 788 786 787 787 787 787 787 788 787 786 789 784 782 788 789 801 812 809 807 801 802 803 802 808 810 808 806 807 810 807 801 807 813 809 815 816 810 812 810 808 808 809 812 812
812 811 810 810 809 808 808 807 806 806 805 806 805 805 805 805 806 806 805 804 804 803 803 802 802 801 799 798 795 794 791 788 786 783 781 781 782 782 783 784 784 785 787 788 787 786 786 786 786 786 788 789 788 788 791 787 786 786 787 806 811 801 801 798 800 803 801 803 807 808 806 806 807 802 801 810 814 812 819 819 814 818 815 811 810 810 812 812
811 810 810 809 808 808 807 806 806 805 805 805 805 805 805 805 805 805 804 804 803 803 803 802 802 801 800 797 796 794 790 791 788 781 781 781 781 782 783 784 784 786 787 787 787 786 786 785 784 785 789 791 788 789 791 789 788 786 787 804 803 793 800 800 798 801 799 799 805 807 806 809 806 799 802 807 813 815 814 812 811 816 813 811 810 809 812 812
810 810 809 808 808 807 806 806 805 804 804 804 804 804 804 804 805 805 804 804 803 803 802 802 802 800 799 796 796 792 792 801 790 778 781 781 780 782 782 784 785 786 787 787 787 786 785 784 784 786 789 790 789 791 792 787 785 790 790 795 794 790 800 800 795 800 800 800 804 806 807 809 803 802 804 805 813 815 806 804 805 808 808 807 809 809 810 812
810 809 808 808 807 806 806 805 804 804 804 804 804 803 803 804 804 804 804 803 803 803 802 802 801 800 798 796 795 792 796 802 786 778 782 780 781 782 782 784 785 786 787 787 786 785 785 783 786 789 789 789 790 791 792 786 784 795 795 791 790 790 797 798 796 801 800 801 806 806 804 802 804 809 805 804 811 807 798 798 800 802 803 805 807 808 809 811
809 808 808 807 806 806 805 805 804 803 803 803 803 803 803 803 804 804 803 803 802 802 802 801 801 799 797 795 794 791 792 791 780 780 782 779 782 781 782 784 784 787 787 786 785 784 784 785 788 788 788 790 791 791 790 788 787 795 797 793 792 791 795 795 797 802 800 803 805 802 802 803 809 812 807 807 806 800 797 796 798 801 802 805 807 808 809 810
809 808 807 806 805 805 804 804 803 802 802 802 802 802 802 803 803 803 802 803 802 802 802 801 801 799 797 795 793 791 789 785 780 782 781 780 782 781 783 784 784 787 786 786 784 782 784 786 787 785 790 792 789 790 789 791 793 794 797 795 793 793 795 794 797 802 802 804 803 802 806 808 808 807 809 810 805 800 798 797 799 802 804 806 807 808 809 809
808 807 806 806 805 804 804 803 802 802 801 801 801 801 802 802 802 803 802 802 801 802 801 801 801 799 798 795 792 794 789 782 781 782 781 782 782 782 783 784 785 786 785 786 783 783 785 785 785 784 792 791 786 788 787 794 800 794 794 794 795 796 795 795 798 801 803 803 803 806 812 810 803 804 812 810 803 801 799 800 802 803 806 807 807 809 809 809
807 806 805 805 803 803 803 802 802 801 801 801 800 800 801 801 801 802 801 802 801 801 801 801 801 799 799 795 794 797 786 780 783 782 782 782 782 783 784 784 785 785 785 784 782 783 782 783 781 778 785 787 785 788 787 793 796 790 790 792 794 797 795 796 799 800 802 804 804 809 814 811 802 807 819 812 802 801 801 804 804 804 808 808 808 808 809 810
806 805 805 804 803 803 802 802 801 800 800 799 800 800 800 800 801 801 801 801 801 801 801 801 800 799 798 795 796 794 782 780 783 781 782 783 783 784 784 784 785 785 784 782 782 782 780 780 776 777 785 784 784 787 787 787 787 787 789 795 797 796 797 798 801 802 803 808 805 805 813 812 808 813 818 809 801 801 803 807 807 807 808 808 808 808 809 810
806 805 804 803 802 801 801 801 800 799 799 799 799 799 799 800 800 800 800 800 800 800 801 801 801 800 798 796 793 786 780 782 782 782 783 782 784 784 784 785 784 785 784 782 781 780 781 779 777 784 786 781 785 791 789 781 782 786 787 800 805 800 804 803 802 802 804 810 804 805 819 819 817 818 811 804 801 801 804 808 809 809 809 808 809 809 810 810
805 804 803 802 801 800 800 799 798 798 798 798 798 798 799 799 799 800 800 800 800 800 800 801 800 799 800 796 785 780 781 782 782 782 783 782 784 784 783 784 784 785 784 782 781 780 781 779 779 784 780 781 788 787 784 779 783 790 788 797 806 808 811 805 803 804 806 811 803 810 830 829 823 817 807 802 801 804 807 809 809 809 809 809 809 809 809 809
804 803 802 800 799 799 798 798 798 797 797 798 798 798 798 798 799 799 799 800 799 800 800 800 800 799 800 791 780 780 781 781 782 782 782 783 783 783 783 783 784 784 784 783 782 781 781 779 779 780 777 781 783 779 783 785 786 792 795 797 801 812 816 804 800 806 811 811 801 810 829 830 823 815 807 804 802 805 809 809 809 810 810 809 809 809 808 808
803 802 800 799 798 798 797 797 796 796 797 797 797 798 798 798 799 798 799 800 799 800 799 800 800 798 798 789 779 779 780 780 781 781 782 782 782 782 782 783 784 783 783 783 782 782 781 779 781 784 781 777 778 786 791 790 788 791 804 809 802 808 816 806 800 803 811 811 800 810 827 827 821 813 807 806 805 805 808 809 808 810 810 809 809 808 808 806
801 800 799 798 797 797 796 796 796 796 796 796 797 797 798 798 798 799 799 799 799 800 799 800 799 799 801 790 779 779 780 779 779 780 781 781 781 780 780 782 782 782 783 782 782 782 780 780 781 783 783 781 784 792 794 794 796 793 801 812 807 807 812 810 805 799 804 809 806 812 822 824 819 812 806 806 807 806 808 809 809 811 811 810 809 807 810 812
800 799 798 797 796 796 795 795 795 795 795 796 797 797 798 798 798 799 799 799 800 799 799 800 798 799 796 784 780 781 778 778 779 780 781 781 781 780 780 781 780 780 780 780 782 781 780 782 784 784 783 786 786 789 801 808 807 800 798 804 806 806 808 810 811 803 801 809 811 811 814 819 816 810 808 806 806 807 808 809 809 811 812 813 811 809 814 816
798 797 797 796 795 795 795 794 794 795 795 796 796 797 798 798 799 799 799 799 800 799 801 799 798 804 798 783 782 782 777 778 779 779 780 780 780 780 780 779 778 779 781 784 784 782 784 783 786 792 790 789 788 792 808 815 810 807 804 803 804 805 806 808 810 806 803 810 814 813 815 818 814 809 809 807 805 808 809 808 808 808 809 812 813 814 816 814
797 796 795 795 794 794 794 793 794 794 795 796 797 798 798 799 799 799 800 800 799 799 800 796 794 800 797 783 778 778 777 778 778 778 779 778 780 780 779 779 778 781 790 795 791 785 787 790 793 800 798 795 795 798 805 806 804 805 803 803 805 804 804 804 805 802 801 810 815 813 814 815 814 812 811 808 805 809 810 808 809 809 808 812 816 817 817 814
796 795 794 794 793 793 793 793 793 794 795 796 797 798 799 799 799 799 798 798 794 790 790 789 786 788 787 780 777 778 778 778 777 777 777 778 778 779 779 780 782 787 794 799 795 785 790 804 804 799 799 798 797 797 798 798 799 801 802 802 802 802 804 803 806 804 800 810 814 810 812 814 815 814 810 809 809 810 811 811 811 810 809 815 819 818 817 814
794 794 793 793 793 792 792 793 793 794 795 796 797 797 795 793 797 798 795 792 786 783 785 784 783 785 783 780 779 779 780 780 777 774 777 777 776 783 784 784 794 800 795 794 795 787 794 810 804 794 797 796 795 794 796 798 800 801 801 801 801 801 805 804 806 807 802 809 814 811 815 818 816 814 811 809 811 812 810 810 813 810 809 813 814 814 814 811
794 793 792 792 792 792 792 792 793 794 795 796 797 794 790 791 794 794 793 792 784 780 783 782 784 785 779 779 780 780 784 786 781 776 776 776 778 787 787 788 800 802 792 794 801 802 807 807 795 790 793 793 793 794 797 799 800 800 797 799 801 799 804 809 809 807 803 808 815 813 816 821 817 814 812 810 810 810 809 809 810 810 810 811 811 811 811 810
793 791 792 792 791 792 792 792 793 793 795 796 796 793 791 792 793 792 794 794 788 782 781 783 785 784 780 780 778 780 785 786 785 779 773 777 781 783 786 793 799 797 795 800 806 812 813 801 789 789 791 794 795 794 798 799 796 797 796 797 801 798 803 813 813 810 806 807 811 812 818 823 820 817 815 812 810 810 811 810 808 808 811 812 810 810 811 812
791 790 791 790 791 792 791 792 793 794 795 795 795 794 792 793 793 794 793 792 791 784 779 780 780 780 780 777 775 780 784 780 780 777 771 776 782 782 786 790 795 799 798 797 800 808 805 790 785 789 791 795 798 794 796 798 794 793 795 797 799 799 800 804 808 809 809 810 807 811 825 824 817 820 819 813 812 813 813 812 812 811 811 811 810 811 812 813
789 790 790 789 791 791 792 794 793 794 795 794 795 793 793 794 792 794 795 795 794 786 780 779 779 778 774 775 777 776 779 779 775 772 769 772 778 784 788 785 792 803 799 795 801 805 799 786 786 794 794 794 797 795 793 796 795 794 795 796 796 798 799 800 805 807 814 821 808 809 830 828 814 818 820 815 815 817 814 813 815 815 812 812 813 814 814 814
788 788 788 789 790 791 793 793 792 794 795 794 794 792 793 794 793 794 796 799 797 787 785 784 781 778 772 775 775 772 785 785 770 767 770 772 772 778 790 789 790 798 793 792 800 799 794 788 789 796 797 795 797 795 791 793 798 801 799 794 793 796 799 801 804 806 815 823 809 802 823 833 825 820 817 815 818 819 817 815 816 816 814 813 813 814 815 815
787 787 787 788 789 791 793 791 792 794 792 792 792 792 794 792 793 794 799 811 804 783 783 785 780 777 773 773 770 778 797 787 771 772 770 772 772 773 790 794 793 796 787 794 808 800 791 794 796 797 798 798 797 795 792 790 798 805 798 792 794 796 799 799 801 804 805 811 811 804 812 827 829 821 814 815 820 822 820 819 818 816 814 813 813 814 815 815
785 785 786 787 788 790 791 791 793 791 790 791 790 792 793 791 794 794 805 824 806 776 778 782 776 772 770 771 770 779 787 778 782 784 767 771 775 775 791 792 790 794 786 797 815 800 788 797 799 797 800 799 794 791 789 789 798 801 793 792 794 796 798 796 798 802 799 809 820 810 809 823 825 818 815 815 820 825 823 820 819 816 815 814 813 814 814 815
784 784 785 786 788 789 790 791 791 790 790 790 791 792 791 792 794 795 808 818 795 774 776 777 775 775 773 776 777 779 777 776 786 782 768 774 774 775 789 786 783 792 789 793 803 795 788 792 790 794 801 796 789 789 788 790 797 795 791 793 794 795 797 797 800 801 805 819 824 811 809 823 826 819 817 819 822 825 822 817 817 816 815 814 813 813 814 814
782 783 784 786 788 790 791 791 789 790 790 790 791 791 791 794 796 806 823 813 788 779 778 776 779 778 778 785 786 782 781 780 780 776 775 778 774 774 780 778 780 791 793 792 794 791 786 786 786 791 793 787 787 790 790 790 791 791 793 795 797 798 797 799 801 803 819 830 822 811 808 818 829 821 811 815 815 813 815 816 816 815 814 815 813 812 813 813
781 782 784 785 788 790 790 790 789 789 790 790 790 789 793 796 797 812 821 797 782 785 781 780 782 777 780 788 788 786 785 783 780 782 786 783 783 785 786 788 791 796 801 801 798 792 789 792 790 784 782 783 788 792 791 788 787 791 794 796 805 808 805 809 810 815 832 835 819 810 807 815 831 820 804 805 804 801 808 813 815 816 815 815 814 812 812 813
781 782 783 784 786 788 788 788 788 789 790 789 789 789 794 804 808 808 801 787 788 790 781 781 782 779 781 783 784 785 786 787 782 783 787 788 791 791 791 795 796 806 816 809 802 799 794 790 784 782 781 782 790 796 795 792 791 794 795 800 815 823 824 829 827 826 832 828 814 808 811 820 822 810 800 802 802 800 802 804 808 812 814 815 814 814 813 813
781 782 783 784 785 787 787 787 788 789 789 788 790 788 794 812 814 798 785 786 791 783 774 777 778 778 782 784 786 783 784 788 784 783 784 784 791 791 788 786 785 800 810 802 801 806 803 792 783 787 787 781 787 796 800 798 795 797 796 802 818 829 841 846 835 828 828 822 813 807 815 821 814 806 801 799 801 801 799 799 802 806 811 814 813 813 814 814
781 782 784 784 785 786 786 787 788 788 788 788 790 793 804 814 803 788 785 784 781 778 775 777 779 781 783 784 784 781 786 790 783 784 788 788 794 795 792 790 786 789 795 796 799 802 810 809 793 789 789 784 785 786 789 788 788 790 784 791 807 814 830 841 833 830 828 820 816 817 821 819 814 811 803 797 800 799 798 799 801 806 809 811 812 813 815 816
781 783 784 785 785 786 785 788 788 788 789 788 789 798 809 807 791 784 785 777 776 779 778 776 780 787 788 784 780 776 783 790 784 785 790 791 795 794 791 792 789 787 791 801 802 796 807 807 787 781 782 781 785 780 776 783 790 786 778 791 804 797 805 821 822 821 821 820 819 820 817 804 801 804 796 796 801 798 800 802 804 810 810 810 815 814 816 818
783 784 785 785 785 785 786 787 787 788 788 787 795 801 798 789 781 780 777 773 776 778 781 783 784 789 792 788 786 782 779 783 785 788 790 789 789 787 785 784 783 785 787 794 799 798 808 804 783 781 783 778 782 780 774 785 793 789 788 798 795 782 791 813 820 813 816 829 825 815 810 798 800 808 800 798 805 803 805 807 807 811 811 812 816 815 816 818
784 785 785 784 784 785 786 786 787 790 787 787 797 798 786 778 776 775 773 773 774 773 780 790 787 786 791 790 789 787 782 783 786 789 792 792 789 784 783 781 777 780 779 781 790 791 798 802 786 782 790 782 775 777 775 776 782 791 798 793 785 785 790 804 822 823 824 836 826 812 814 808 811 823 812 803 809 809 807 808 809 811 812 813 815 815 817 817
784 784 783 784 785 784 784 786 787 788 786 790 797 793 783 779 775 772 773 773 774 775 780 786 784 782 785 788 788 783 783 789 790 789 791 794 791 781 782 784 778 777 773 774 787 786 788 804 795 782 789 785 772 780 788 779 774 783 787 779 786 808 810 807 822 831 833 839 829 815 814 807 807 818 816 808 809 809 808 809 811 812 812 814 815 816 817 816
784 783 783 783 783 783 784 786 786 785 787 794 798 791 782 779 774 770 772 772 775 780 781 777 778 782 780 779 782 781 782 786 787 787 789 792 791 781 776 780 779 778 773 772 784 784 784 805 808 786 780 783 779 786 796 790 779 778 780 779 785 800 808 807 811 816 826 836 833 824 820 814 807 808 809 806 802 805 809 810 811 811 812 814 815 816 817 817
780 781 783 782 782 783 783 784 784 786 790 791 789 784 780 779 775 769 768 772 774 776 778 774 774 781 780 774 776 779 780 782 781 784 786 785 789 786 776 775 779 779 777 775 780 782 785 801 809 793 781 787 792 790 791 792 788 786 790 793 792 793 798 803 803 802 812 827 832 831 830 825 814 806 805 801 797 801 805 807 809 809 810 813 814 816 817 817
777 780 783 782 782 783 783 786 786 785 788 786 782 781 780 778 776 771 767 769 771 770 771 773 772 774 776 776 775 776 779 782 779 781 783 780 785 787 777 772 776 778 781 784 783 784 788 796 802 798 791 794 795 787 784 787 787 788 792 792 794 796 801 816 820 807 803 814 821 825 831 827 813 806 805 800 795 798 800 803 808 809 810 813 815 816 817 817
778 782 783 781 783 782 783 787 784 781 785 784 779 778 778 776 776 773 768 768 771 769 768 772 772 769 770 773 773 773 777 781 780 779 781 778 777 779 775 771 772 773 778 786 782 777 781 790 798 799 793 791 791 785 783 785 782 784 788 787 790 792 798 818 828 814 804 807 808 812 823 824 812 805 804 799 794 796 799 802 807 809 811 814 815 817 817 818
777 780 782 782 782 781 786 789 785 784 785 779 774 774 773 774 775 772 771 770 771 770 771 772 770 767 767 767 770 773 775 779 781 778 778 778 774 772 772 771 773 773 774 781 781 778 783 793 801 803 796 790 788 784 782 783 785 789 790 788 792 794 795 803 807 805 809 810 808 816 824 824 815 806 803 800 797 798 800 802 807 810 812 814 816 818 819 820
773 776 779 782 782 781 786 788 785 785 782 776 777 776 771 770 771 771 772 771 768 769 772 771 766 765 765 764 767 770 772 780 784 778 776 779 775 771 769 770 773 773 773 776 777 779 789 797 801 812 818 813 808 803 797 792 791 793 793 793 795 794 794 798 796 801 813 812 810 822 828 824 816 808 805 804 802 803 805 804 808 813 815 816 817 819 821 822
774 778 779 780 781 781 783 780 778 779 779 778 780 777 772 770 766 765 768 766 764 765 768 767 762 761 763 764 768 769 769 776 782 780 778 777 774 771 769 770 771 769 769 771 767 771 787 795 798 813 827 831 830 824 814 803 795 794 797 797 797 795 797 803 803 810 820 816 812 820 823 820 816 811 809 809 808 810 812 811 813 816 817 818 819 822 824 825
777 781 783 782 780 779 778 774 775 778 777 779 780 775 774 773 764 760 763 765 763 761 762 762 759 761 765 768 772 775 772 771 774 778 779 777 775 773 769 770 771 768 771 773 767 770 786 795 797 806 813 816 818 813 803 798 797 801 803 801 800 799 798 801 807 816 820 815 814 818 816 818 820 815 814 816 818 822 825 824 824 823 823 823 823 825 826 827
778 779 779 782 783 782 780 775 775 777 774 776 779 775 773 772 767 764 764 763 761 760 762 762 760 765 769 769 774 778 775 772 773 777 778 776 774 773 770 769 770 772 775 773 768 773 789 798 800 803 805 802 803 802 796 796 801 805 807 806 804 802 800 803 811 816 816 817 823 821 816 819 824 823 825 828 829 833 838 839 838 838 837 833 829 828 828 829
778 776 769 772 778 780 779 774 772 773 773 774 776 775 773 770 768 769 766 762 759 758 762 767 764 763 764 764 771 778 779 779 780 780 779 777 775 775 775 772 770 772 773 772 770 774 787 799 799 800 805 802 800 800 797 799 805 806 808 810 808 806 807 810 814 814 814 821 827 823 818 823 829 834 839 838 836 837 839 839 839 840 841 840 835 829 827 829
774 774 767 767 772 771 769 769 769 771 773 774 775 774 772 768 767 766 761 761 763 758 758 769 769 762 761 761 766 777 782 783 786 785 779 777 776 776 779 779 774 769 768 773 775 774 785 800 800 798 806 807 803 802 801 802 808 810 810 811 810 810 812 813 815 814 814 819 822 821 824 831 836 842 845 843 840 839 838 838 837 836 836 837 834 829 826 828
774 775 771 770 771 767 766 767 769 772 772 774 776 772 765 764 766 763 757 759 767 763 757 765 767 761 761 762 766 776 777 773 779 782 778 779 780 776 779 781 776 770 770 775 778 777 787 803 800 795 806 813 807 804 803 804 809 813 815 813 811 812 814 814 817 817 817 820 820 819 828 838 841 843 843 841 839 839 840 843 841 837 834 833 831 830 830 829
775 774 773 775 774 768 768 768 768 771 773 773 774 767 762 762 761 761 760 756 759 763 760 762 764 761 762 765 770 776 773 767 771 773 771 775 777 774 775 774 773 775 777 779 781 779 785 800 801 799 810 815 809 808 808 806 807 814 819 818 816 817 818 819 820 820 821 823 823 824 831 837 840 842 840 838 838 840 841 842 840 836 833 832 832 832 832 831
774 772 771 775 775 768 767 768 767 769 770 768 766 762 761 762 755 756 766 763 756 759 760 758 759 762 768 774 776 775 770 767 769 768 766 768 768 768 771 769 769 775 778 780 783 782 785 796 801 803 811 814 809 809 810 809 816 824 824 821 820 820 820 821 821 822 822 822 825 830 832 833 837 840 839 837 838 839 839 838 837 834 832 831 831 831 832 832